Regional Weather Roundup
Issued by NWS

Home | Current Version | Previous Version | Text Only | Print | Product List | Glossary On
Versions: 1 2 3 4 5 6 7 8 9 10 11 12 13 14 15 16 17 18 19 20 21 22 23 24 25 26 27 28 29 30 31 32 33 34 35 36 37 38 39 40 41 42 43 44 45 46 47 48 49 50
000
ASUS43 KDTX 021310
RWRMI
MICHIGAN HOURLY REGIONAL WEATHER ROUNDUP
NATIONAL WEATHER SERVICE DETROIT/PONTIAC MI
900 AM EDT THU OCT 02 2014

NOTE: "FAIR" INDICATES FEW OR NO CLOUDS BELOW 12,000 FEET WITH NO
SIGNIFICANT WEATHER AND/OR OBSTRUCTION TO VISIBILITY.

MIZ047>049-052>055-059>063-066>070-074>076-081>083-021400-
SOUTHEAST LOWER MICHIGAN

CITY           SKY/WX    TMP DP  RH WIND       PRES   REMARKS
ADRIAN         PTSUNNY   55  52  89 SE3       30.03F FOG
ALMA           CLOUDY    57  56  94 SE3       29.99F FOG
ANN ARBOR      PTSUNNY   55  52  89 CALM      30.03F FOG
BAD AXE        CLOUDY    58  58 100 S9        30.04S FOG
DETROIT CITY   MOSUNNY   57  55  93 S5        30.04F FOG
DETROIT        PTSUNNY   58  57  97 SE5       30.04S
FLINT          CLOUDY    62  57  83 S9        30.02S HAZE
GROSSE ILE     MOSUNNY   63  57  82 S6        30.03F
HILLSDALE      CLOUDY    57  54  90 SE7       30.00F
HOWELL         CLOUDY    57  55  94 SE9       30.01F FOG

CITY           SKY/WX    TMP DP  RH WIND       PRES   REMARKS
JACKSON        CLOUDY    57  53  86 SE10      30.00F
LAMBERTVILLE   PTSUNNY   55  54  94 SE3       30.03F FOG
LANSING        CLOUDY    58  51  78 SE13      29.99F
LAPEER         NOT AVBL
MASON          CLOUDY    56  53  88 SE8       29.99F
MONROE         MOSUNNY   55  55 100 CALM      30.02F FOG
MT. CLEMENS    CLOUDY    61  61 100 S10       30.02S FOG
PONTIAC        PTSUNNY   58  56  93 S8        30.03S FOG
PORT HOPE        N/A     60  58  92 VRB5      30.02F
PORT HURON     FOG       59  59 100 SE5       30.05S VSB 3/4
TRI CITIES     CLOUDY    60  57  89 S7        30.01S
YPSILANTI      PTSUNNY   59  55  87 SE6       30.04F FOG
$$
MIZ043>046-050>051-056>058-064>065-071>073-077>080-021400-
SOUTHWEST LOWER MICHIGAN

CITY           SKY/WX    TMP DP  RH WIND       PRES   REMARKS
BATTLE CREEK   CLOUDY    59  51  75 SE8       29.96F
BENTON HARBOR  CLOUDY    59  55  87 SE9       29.91S
BIG RAPIDS     LGT RAIN  56  56 100 SE7       29.95F
COLDWATER      CLOUDY    60  52  75 SE8       29.97F
GRAND RAPIDS   CLOUDY    60  54  80 SE7       29.94F
KALAMAZOO      CLOUDY    61  52  72 S6        29.96F
MARSHALL       CLOUDY    58  51  78 SE9       29.97F
MUSKEGON       CLOUDY    61  55  81 SE12      29.91S
$$
MIZ016>042-021400-
NORTHERN LOWER MICHIGAN

CITY           SKY/WX    TMP DP  RH WIND       PRES   REMARKS
ALPENA         CLOUDY    57  57 100 S5        30.01S FOG
BEAVER ISLAND  RAIN      56  55  97 SE7       29.93F
BELLAIRE       HVY RAIN  58  54  86 CALM      29.95R
CADILLAC       LGT RAIN  54  53  98 SE6       29.96S
CHARLEVOIX     RAIN      57  56  99 E3        29.97S
FRANKFORT      RAIN      58  55  89 SE5       29.90F
GAYLORD        LGT RAIN  55  52  89 S10       29.96F
GRAYLING       CLOUDY    55  55  97 SE5       29.99S FOG
HARBOR SPRINGS CLOUDY    56  54  92 NE6       29.96S FOG
HOUGHTON LAKE  CLOUDY    55  54  96 SE10      29.99S FOG
OSCODA         CLOUDY    57  57 100 S5        30.01S FOG
PELLSTON       LGT RAIN  56  55  97 E3        29.97F FOG
TRAVERSE CITY  LGT RAIN  57  53  86 SE5       29.93R FOG
$$
MIZ007>008-015-021400-
EASTERN UPPER MICHIGAN

CITY           SKY/WX    TMP DP  RH WIND       PRES   REMARKS
MACKINAC ISLAN RAIN      56  56  99 SE5       29.98S
NEWBERRY       LGT RAIN  54  54  99 SE9       29.93F
S. S. MARIE    LGT RAIN  56  54  93 SE9       29.97S FOG
$$
MIZ004>006-011>014-085-021400-
CENTRAL UPPER MICHIGAN

CITY           SKY/WX    TMP DP  RH WIND       PRES   REMARKS
MANISTIQUE     CLOUDY    56  56  97 SE7       29.90F FOG
SAWYER-GWINN   FOG       54  52  94 S5        29.89S VSB 1/2
$$
MIZ001>003-009>011-084-021400-
WESTERN UPPER MICHIGAN

CITY           SKY/WX    TMP DP  RH WIND       PRES   REMARKS
IRON MOUNTAIN  FOG       54  53  97 SE5       29.87S VSB 1/4
HOUGHTON       CLOUDY    55  52  89 S5        29.86R FOG
COPPER HARBOR    N/A     56  52  86 SW6       29.86S
$$

ABBREVIATIONS USED IN REMARKS
   TC - TEMPERATURE IN CELSIUS
  WCI - WIND CHILL INDEX
   HX - HEAT INDEX
  VSB - VISIBILITY



USA.gov is the U.S. government's official web portal to all federal, state and local government web resources and services.